[[{"header":{"parameterUnit":"m.s-1","parameterCategory":1,"la1":30.2991,"la2":30.254,"lo1":-89.0895,"lo2":-89.0444,"dy":0.0017,"dx":0.0017,"nx":28,"ny":28,"refTime":"2025-02-03T09:00:00:Z","depth":0,"parameterNumber":2,"parameterNumberName":"U-component_of_WINDS"},"data":[0,0,0,0,0,0,0,0,0,0,0,0,0,0,0,0,0,0,0,0,0,0,0,0,0,0,0,0,0,0,0,0,0,0,0,0,0,0,0,0,0,0,0,0,0,0,0,0,0,0,0,0,0,0,0,0,0,0,-2.1093,-2.1095,0,-2.1219,-2.122,-2.1222,-2.1258,-2.1257,-2.1257,-2.1256,-2.1384,-2.1388,-2.1392,0,0,0,0,0,0,0,0,0,0,0,0,0,-2.0887,-2.0891,-2.1093,-2.1095,-2.1096,-2.1219,-2.122,-2.1222,-2.1258,-2.1257,-2.1257,-2.1256,-2.1383,-2.1387,-2.1392,0,0,0,0,0,0,0,0,0,0,0,0,0,-2.0991,-2.0892,-2.1093,-2.1129,-2.1134,-2.1218,-2.122,-2.1222,-2.1258,-2.1257,-2.1256,-2.1255,-2.1381,-2.1387,-2.1393,-2.145,0,0,-2.1411,-2.1414,0,0,0,0,0,0,0,0,-2.0985,-2.0999,-2.1122,-2.1127,-2.1132,-2.1222,-2.1195,-2.1299,-2.1259,-2.1211,-2.1256,-2.1255,-2.1331,-2.1341,-2.1367,-2.1456,-2.1461,-2.1412,-2.1415,-2.1418,-2.142,0,0,0,0,0,0,0,-2.0978,-2.0993,-2.1143,-2.1124,-2.113,-2.114,-2.1154,-2.1214,-2.1275,-2.1215,-2.1218,-2.1232,-2.1333,-2.1361,-2.137,-2.1463,-2.1412,-2.1417,-2.1421,-2.1423,-2.1611,-2.1612,0,0,0,0,0,0,-2.0964,-2.0987,-2.1139,-2.1147,-2.1055,-2.1145,-2.116,-2.1194,-2.1274,-2.1286,-2.1233,-2.1234,-2.1351,-2.1363,-2.1374,-2.1449,-2.1418,-2.1424,-2.1427,-2.1609,-2.1611,-2.1613,0,0,0,0,0,0,-2.096,-2.0978,-2.1134,-2.1068,-2.1088,-2.1149,-2.1187,-2.1197,-2.1224,-2.1288,-2.1299,-2.125,-2.135,-2.1366,-2.1432,-2.1453,-2.1426,-2.1432,-2.1608,-2.161,-2.1612,-2.1596,0,0,0,0,0,0,-2.0954,-2.0976,-2.0997,-2.1068,-2.1092,-2.1188,-2.1189,-2.12,-2.1235,-2.1237,-2.1307,-2.1317,-2.1351,-2.1423,-2.1438,-2.1461,-2.1437,-2.1606,-2.1609,-2.1611,-2.1595,-2.1597,-2.1599,0,0,0,0,0,-2.0946,-2.0986,-2.0998,-2.1016,-2.112,-2.1189,-2.1203,-2.1241,-2.1236,-2.1259,-2.1301,-2.1315,-2.1449,-2.1429,-2.1447,-2.1472,-2.1605,-2.1608,-2.1611,-2.1594,-2.1597,-2.1599,0,0,0,0,0,0,-2.0914,-2.0996,-2.1009,-2.1074,-2.1124,-2.1195,-2.1224,-2.1242,-2.1295,-2.1294,-2.1339,-2.1355,-2.1418,-2.1452,-2.1428,-2.1534,-2.1528,-2.1534,-2.1509,-2.1512,-2.1514,-2.1504,-2.1442,0,0,0,0,0,-2.0915,-2.0964,-2.1033,-2.1083,-2.1108,-2.1162,-2.1194,-2.1219,-2.1273,-2.1295,-2.1341,-2.1393,-2.1448,-2.1482,-2.1536,-2.1601,-2.1618,-2.1628,-2.163,-2.1632,-2.1636,-2.1676,-2.1682,-2.1623,-2.1623,-2.1623,0,0,-2.0916,-2.0967,-2.0995,-2.1078,-2.1121,-2.1172,-2.118,-2.1232,-2.1271,-2.1303,-2.1368,-2.1405,-2.1466,-2.1533,-2.1565,-2.1563,-2.1657,-2.1636,-2.1636,-2.164,-2.168,-2.1686,-2.1691,-2.1625,-2.1624,-2.1624,0,0,-2.0944,-2.0987,-2.1035,-2.1078,-2.1143,-2.118,-2.1191,-2.1261,-2.1287,-2.1354,-2.138,-2.1427,-2.1519,-2.1563,-2.1597,-2.1649,-2.1664,-2.1665,-2.1676,-2.1714,-2.1719,-2.1723,-2.1742,-2.1749,-2.167,-2.167,-2.167,0,-2.0937,-2.1014,-2.1057,-2.111,-2.1147,-2.1181,-2.123,-2.127,-2.1349,-2.1374,-2.1372,-2.1491,-2.1535,-2.1614,-2.1627,-2.1653,-2.1669,-2.1655,-2.1715,-2.172,-2.1724,-2.1743,-2.175,-2.167,-2.167,-2.167,-2.167,0,-2.1003,-2.1057,-2.1088,-2.1165,-2.1206,-2.1256,-2.1308,-2.1345,-2.1369,-2.1406,-2.1476,-2.1531,-2.1597,-2.1619,-2.1641,-2.1702,-2.17,-2.1706,-2.17,-2.1729,-2.1747,-2.1755,-2.1669,-2.1669,-2.1669,-2.1669,0,0,-2.101,-2.1114,-2.1124,-2.1161,-2.1238,-2.128,-2.1335,-2.1401,-2.1432,-2.1487,-2.1534,-2.1615,-2.1622,-2.1661,-2.169,-2.1724,-2.1764,-2.1727,-2.1729,-2.1732,-2.1836,-2.183,-2.1837,-2.1776,-2.1778,-2.1779,-2.1831,0,-2.1047,-2.1144,-2.1187,-2.1265,-2.1317,-2.1353,-2.1401,-2.1454,-2.1492,-2.1542,-2.1584,-2.164,-2.1646,-2.167,-2.1706,-2.1751,-2.1785,-2.1748,-2.1821,-2.1823,-2.1802,-2.1847,-2.1839,-2.1885,-2.1838,-2.184,-2.1841,0,-2.1103,-2.116,-2.1243,-2.1317,-2.1341,-2.1382,-2.1449,-2.1496,-2.1559,-2.1584,-2.1631,-2.1659,-2.172,-2.1713,-2.1798,-2.1772,-2.1805,-2.1833,-2.1836,-2.1842,-2.1831,-2.1853,-2.19,-2.1907,-2.1852,-2.1851,-2.185,0,-2.1099,-2.1197,-2.1261,-2.1291,-2.1379,-2.1408,-2.1446,-2.1508,-2.1546,-2.1605,-2.1631,-2.1696,-2.1731,-2.1782,-2.1828,-2.1818,-2.1909,-2.1905,-2.1933,-2.1931,-2.1947,-2.1945,-2.1999,-2.1971,-2.1971,-2.1971,-2.1971,0,-2.1136,-2.1186,-2.1261,-2.1299,-2.1358,-2.1408,-2.1465,-2.1505,-2.1561,-2.161,-2.1646,-2.1691,-2.175,-2.1804,-2.1841,-2.1906,-2.1922,-2.1945,-2.1954,-2.1941,-2.1938,-2.1961,-2.1959,-2.1973,-2.1973,-2.1972,-2.1972,0,-2.114,-2.1193,-2.1264,-2.1343,-2.1365,-2.1404,-2.1472,-2.1512,-2.1554,-2.1616,-2.1633,-2.1699,-2.1764,-2.1816,-2.1901,-2.1926,-2.1995,-2.2006,-2.1974,-2.1978,-2.2002,-2.1999,-2.2072,-2.2084,-2.2049,-2.2049,-2.2049,0,-2.1159,-2.1199,-2.1283,-2.1319,-2.1357,-2.1413,-2.1454,-2.1507,-2.1547,-2.1625,-2.1656,-2.1724,-2.1781,-2.1884,-2.194,-2.2006,-2.2018,-2.2039,-2.2028,-2.2014,-2.2018,-2.2014,-2.2019,-2.2039,-2.2039,-2.2039,-2.2039,0,-2.1187,-2.1213,-2.1269,-2.1336,-2.1384,-2.1439,-2.1495,-2.1522,-2.1586,-2.163,-2.1698,-2.1742,-2.1831,-2.1899,-2.1972,-2.2013,-2.2037,-2.2044,-2.2053,-2.2039,-2.2019,-2.203,-2.1976,-2.2041,-2.204,-2.204,-2.204,-2.204,-2.12,-2.1238,-2.1304,-2.1367,-2.1415,-2.1468,-2.151,-2.1559,-2.1616,-2.1692,-2.1721,-2.1791,-2.1857,-2.1958,-2.2,-2.2056,-2.2058,-2.2072,-2.2075,-2.2078,-2.2076,-2.2012,-2.207,-2.207,-2.207,-2.207,-2.207,0,-2.123,-2.1275,-2.1333,-2.1411,-2.1462,-2.1482,-2.1547,-2.1588,-2.1649,-2.1708,-2.1765,-2.1844,-2.1912,-2.1975,-2.2045,-2.2079,-2.2092,-2.2096,-2.2093,-2.2102,-2.207,-2.2054,-2.2084,-2.2084,-2.2084,-2.2084,-2.2084,-2.2084,-2.1251,-2.1317,-2.135,-2.1442,-2.1488,-2.1556,-2.1592,-2.1641,-2.169,-2.1777,-2.1833,-2.1874,-2.1936,-2.2013,-2.2076,-2.2094,-2.2118,-2.2118,-2.2138,-2.2106,-2.2104,-2.2102,-2.2087,-2.2123,-2.2123,-2.2165,-2.2166,-2.2166]},{"header":{"parameterUnit":"m.s-1","parameterCategory":1,"la1":30.2991,"la2":30.254,"lo1":-89.0895,"lo2":-89.0444,"dy":0.0017,"dx":0.0017,"nx":28,"ny":28,"refTime":"2025-02-03T09:00:00:Z","depth":0,"parameterNumber":3,"parameterNumberName":"V-component_of_WINDS"},"data":[0,0,0,0,0,0,0,0,0,0,0,0,0,0,0,0,0,0,0,0,0,0,0,0,0,0,0,0,0,0,0,0,0,0,0,0,0,0,0,0,0,0,0,0,0,0,0,0,0,0,0,0,0,0,0,0,0,0,2.4847,2.4848,0,2.4884,2.4885,2.4885,2.4964,2.4965,2.4967,2.4968,2.5,2.5,2.4999,0,0,0,0,0,0,0,0,0,0,0,0,0,2.4839,2.4839,2.4847,2.4848,2.4848,2.4884,2.4885,2.4885,2.4963,2.4965,2.4967,2.4969,2.5,2.5,2.4999,0,0,0,0,0,0,0,0,0,0,0,0,0,2.4856,2.4838,2.4847,2.4892,2.4896,2.4884,2.4885,2.4886,2.4963,2.4965,2.4968,2.497,2.5001,2.5,2.4999,2.4945,0,0,2.4996,2.4996,0,0,0,0,0,0,0,0,2.4855,2.4856,2.4885,2.4888,2.4893,2.4922,2.4894,2.4905,2.4962,2.4937,2.4968,2.4971,2.4972,2.4973,2.4975,2.4947,2.4948,2.4996,2.4995,2.4995,2.4995,0,0,0,0,0,0,0,2.4853,2.4855,2.4862,2.4885,2.489,2.4908,2.4913,2.4896,2.494,2.494,2.4946,2.4949,2.4975,2.4976,2.4976,2.4948,2.4996,2.4995,2.4994,2.4994,2.4879,2.4876,0,0,0,0,0,0,2.4846,2.4853,2.4861,2.4863,2.488,2.4906,2.4912,2.491,2.4941,2.4948,2.4947,2.4953,2.4976,2.4977,2.4978,2.4918,2.4995,2.4994,2.4993,2.4881,2.4878,2.4876,0,0,0,0,0,0,2.4846,2.4846,2.4859,2.486,2.4863,2.4904,2.4901,2.491,2.4911,2.4947,2.4954,2.494,2.4978,2.4979,2.4953,2.492,2.4994,2.4993,2.4884,2.488,2.4877,2.4796,0,0,0,0,0,0,2.4845,2.4846,2.4827,2.4859,2.4862,2.4835,2.4899,2.4909,2.491,2.4918,2.4942,2.4949,2.498,2.4954,2.4952,2.492,2.4992,2.4887,2.4882,2.4878,2.4802,2.479,2.478,0,0,0,0,0,2.4845,2.4801,2.4825,2.4826,2.484,2.4833,2.4835,2.4874,2.4907,2.4887,2.4911,2.4948,2.4924,2.4951,2.4949,2.4916,2.489,2.4884,2.4878,2.4807,2.4792,2.478,0,0,0,0,0,0,2.4761,2.4806,2.4833,2.4799,2.4812,2.4846,2.4823,2.4857,2.4859,2.4866,2.4912,2.4917,2.4885,2.4898,2.4928,2.4866,2.4913,2.4907,2.4859,2.4845,2.4834,2.4832,2.4991,0,0,0,0,0,2.4739,2.4732,2.477,2.4736,2.4741,2.4781,2.4779,2.4809,2.4823,2.4828,2.485,2.486,2.4856,2.4851,2.4849,2.4804,2.4811,2.4781,2.477,2.476,2.4754,2.4732,2.4719,2.4857,2.4857,2.4857,0,0,2.4692,2.4716,2.4708,2.472,2.4733,2.4723,2.4785,2.4771,2.4764,2.4825,2.4803,2.4819,2.4835,2.48,2.4785,2.4809,2.4718,2.4753,2.4746,2.4744,2.4725,2.4712,2.47,2.4853,2.4854,2.4855,0,0,2.4602,2.462,2.4594,2.4607,2.4627,2.4654,2.4648,2.4678,2.4692,2.4671,2.4717,2.4708,2.4699,2.4708,2.4712,2.4627,2.4662,2.4625,2.4567,2.4545,2.4534,2.4525,2.4495,2.4483,2.4619,2.4619,2.4619,0,2.4541,2.453,2.4575,2.4559,2.4563,2.4621,2.4595,2.4604,2.4622,2.4622,2.465,2.4641,2.4655,2.4623,2.4603,2.4604,2.4597,2.4622,2.4532,2.4523,2.4515,2.4487,2.4475,2.4614,2.4615,2.4615,2.4615,0,2.4454,2.4445,2.4421,2.444,2.4441,2.4419,2.446,2.4456,2.4485,2.4508,2.4486,2.4506,2.4509,2.4504,2.4531,2.4476,2.4491,2.4524,2.4572,2.4497,2.4471,2.4461,2.4608,2.4609,2.4611,2.4612,0,0,2.431,2.4356,2.4346,2.4356,2.4384,2.4378,2.4359,2.4364,2.4359,2.437,2.4355,2.4346,2.4379,2.4382,2.4412,2.4392,2.4325,2.4429,2.443,2.4409,2.4265,2.4239,2.4226,2.4348,2.4346,2.4345,2.4264,0,2.4226,2.4199,2.424,2.4202,2.4195,2.4251,2.4234,2.4249,2.4271,2.4266,2.429,2.4284,2.4327,2.433,2.4313,2.4336,2.4296,2.4343,2.4333,2.4332,2.4327,2.4213,2.4185,2.4107,2.4254,2.4252,2.4251,0,2.4125,2.4133,2.4095,2.4127,2.4126,2.411,2.4119,2.4115,2.4132,2.415,2.4155,2.4191,2.4174,2.4221,2.4197,2.4228,2.4226,2.4237,2.4235,2.4235,2.4287,2.4209,2.4084,2.4072,2.4236,2.4237,2.4238,0,2.4024,2.4026,2.4004,2.401,2.4047,2.4035,2.4049,2.407,2.4071,2.4078,2.4079,2.4082,2.4084,2.4086,2.4122,2.4153,2.4093,2.4143,2.4106,2.4105,2.409,2.409,2.3962,2.409,2.409,2.409,2.409,0,2.3926,2.39,2.396,2.3946,2.3919,2.3966,2.3938,2.3958,2.3975,2.3966,2.4014,2.4003,2.4051,2.4045,2.4073,2.4049,2.4049,2.4062,2.4069,2.4057,2.4056,2.4056,2.4062,2.4087,2.4088,2.4088,2.4089,0,2.3808,2.3847,2.3827,2.3864,2.3873,2.3852,2.3883,2.3871,2.3897,2.3884,2.3883,2.3923,2.3919,2.3955,2.3957,2.3976,2.3939,2.3956,2.3933,2.3938,2.3899,2.3902,2.3767,2.3751,2.3888,2.3887,2.3886,0,2.3743,2.3725,2.3762,2.376,2.3772,2.3768,2.377,2.3816,2.3816,2.3836,2.3821,2.3822,2.3824,2.3815,2.3843,2.3845,2.3862,2.3814,2.3862,2.3851,2.3861,2.3861,2.386,2.3804,2.3802,2.3801,2.3799,0,2.3623,2.3644,2.3646,2.3655,2.3657,2.3665,2.3677,2.3672,2.3722,2.3719,2.3717,2.3719,2.3723,2.3722,2.373,2.3743,2.3779,2.3784,2.3776,2.3763,2.3751,2.3757,2.3905,2.3787,2.3788,2.3789,2.379,2.379,2.353,2.3517,2.3541,2.3542,2.3556,2.3566,2.3558,2.3584,2.3583,2.3591,2.3618,2.3611,2.363,2.3644,2.3654,2.3648,2.3671,2.3659,2.3656,2.3652,2.3645,2.3753,2.365,2.365,2.3651,2.3651,2.3651,0,2.3412,2.3431,2.3432,2.3448,2.3448,2.3485,2.35,2.3498,2.3492,2.3507,2.351,2.3507,2.3508,2.3536,2.354,2.353,2.3546,2.3529,2.353,2.3532,2.3624,2.3631,2.3516,2.3516,2.3516,2.3516,2.3516,2.3516,2.3351,2.3332,2.3355,2.3343,2.3362,2.3358,2.3363,2.3372,2.3385,2.3381,2.3382,2.3402,2.3423,2.3428,2.343,2.3438,2.3437,2.3414,2.3428,2.3512,2.3526,2.3538,2.3545,2.3413,2.3413,2.3336,2.3336,2.3335]}]]